Tracking 30685 objects as of 17-Jun-2025
HD Live streaming from Space Station
objects crossing your sky now

STARLINK-5577

Track STARLINK-5577 now!
10-day predictions
STARLINK-5577 is classified as:


NORAD ID: 55751
Int'l Code: 2023-028L
Perigee: 576.5 km
Apogee: 581.9 km
Inclination: 70.0 °
Period: 96.1 minutes
Semi major axis: 6950 km
RCS: Unknown
Launch date: March 3, 2023
Source: United States (US)
Launch site: AIR FORCE WESTERN TEST RANGE (AFWTR)
Your satellite tracking list
Your tracking list is empty




NASA's NSSDC Master Catalog

Two Line Element Set (TLE):
1 55751U 23028L   25168.02331449 -.00000093  00000-0  46177-7 0  9991
2 55751  69.9991 194.3843 0003903 261.6277  98.4439 14.98322569126247
Source of the keplerian elements: AFSPC